User: anonymous   Login
Location: Unspecified
(0.0000°N, 0.0000°E)
Time: 20:14:09
(UTC+00:00)
Language:

CUTE 1.7 + AOD 2 - Orbit

View from above orbital plane
View from above orbital plane
View from above satellite
View from above satellite

Ground track
Ground track

The orbit data is extracted from the following two-line orbital elements,

1 32785U 08021C   24165.47354208  .00005070  00000-0  44799-3 0  9995
2 32785  97.7549 130.8318 0010609 349.6592  10.4410 14.96748365874929
Epoch (UTC): 13 June 2024 11:21:54
Eccentricity: 0.0010609
inclination: 97.7549°
perigee height: 569 km
apogee height: 584 km
right ascension of ascending node: 130.8318°
argument of perigee: 349.6592°
revolutions per day: 14.96748365
mean anomaly at epoch: 10.4410°
orbit number at epoch: 87492

The dashed part of the orbit path shows where the satellite is in the earth's shadow,  

DLR